| time (UTC) | temp C | wind direction | speed KPH | gust KPH | rain 1hr cm | rain 24hr cm | rain mn cm | humidity % | barometer mb |
| 20260506195208 | 10 | 257 | 1.6 | 4.8 | 0.00 | 0.00 | 0.00 | 47 | 1013.3 |
| 20260506164516 | 12 | 169 | 19.3 | 32.2 | 0.00 | 0.00 | 4.27 | 47 | 1009.5 |
| 20260506163616 | 11 | 171 | 20.9 | 29.0 | 0.00 | 0.00 | 4.27 | 46 | 1009.7 |
| 20260506162716 | 11 | 169 | 19.3 | 29.0 | 0.00 | 0.00 | 4.27 | 45 | 1009.7 |
| 20260506160923 | 12 | 171 | 19.3 | 27.4 | 0.00 | 0.00 | 4.27 | 45 | 1009.8 |
| 20260506160018 | 12 | 172 | 16.1 | 27.4 | 0.00 | 0.00 | 4.27 | 47 | 1010.0 |
| 20260506155116 | 12 | 156 | 17.7 | 27.4 | 0.00 | 0.00 | 4.27 | 48 | 1010.4 |
| 20260506154216 | 12 | 159 | 19.3 | 25.7 | 0.00 | 0.00 | 4.27 | 50 | 1010.2 |
| 20260506153316 | 11 | 151 | 19.3 | 27.4 | 0.00 | 0.00 | 4.27 | 51 | 1010.2 |
| 20260506152416 | 11 | 154 | 20.9 | 27.4 | 0.00 | 0.00 | 4.27 | 51 | 1010.3 |
| 20260506151516 | 12 | 161 | 17.7 | 25.7 | 0.00 | 0.00 | 4.27 | 52 | 1010.5 |
| 20260506150618 | 13 | 178 | 19.3 | 27.4 | 0.00 | 0.00 | 4.27 | 51 | 1010.4 |
| 20260506145716 | 12 | 174 | 16.1 | 24.1 | 0.00 | 0.00 | 4.27 | 58 | 1010.6 |
| 20260506144816 | 12 | 152 | 12.9 | 24.1 | 0.00 | 0.00 | 4.27 | 59 | 1010.5 |
| 20260506143916 | 12 | 158 | 17.7 | 27.4 | 0.00 | 0.00 | 4.27 | 54 | 1010.7 |
| 20260506143016 | 12 | 167 | 16.1 | 24.1 | 0.00 | 0.00 | 4.27 | 60 | 1010.6 |
| 20260506140316 | 11 | 174 | 17.7 | 27.4 | 0.00 | 0.00 | 4.27 | 53 | 1010.9 |
| 20260506134516 | 12 | 160 | 17.7 | 24.1 | 0.00 | 0.00 | 4.27 | 50 | 1011.2 |
| 20260506133616 | 12 | 166 | 17.7 | 24.1 | 0.00 | 0.00 | 4.27 | 51 | 1011.3 |
| 20260506132716 | 12 | 164 | 17.7 | 25.7 | 0.00 | 0.00 | 4.27 | 53 | 1011.4 |
| 20260506131816 | 12 | 168 | 17.7 | 25.7 | 0.00 | 0.00 | 4.27 | 51 | 1011.4 |
| 20260506125116 | 11 | 151 | 19.3 | 27.4 | 0.00 | 0.00 | 4.27 | 60 | 1011.8 |
| 20260506124216 | 11 | 171 | 20.9 | 27.4 | 0.00 | 0.00 | 4.27 | 57 | 1011.7 |
| 20260506123316 | 11 | 163 | 17.7 | 27.4 | 0.00 | 0.00 | 4.27 | 57 | 1011.9 |
| 20260506122416 | 11 | 159 | 14.5 | 22.5 | 0.00 | 0.00 | 4.27 | 59 | 1011.8 |
| 20260506121518 | 11 | 160 | 16.1 | 22.5 | 0.00 | 0.00 | 4.27 | 59 | 1011.9 |
| 20260506120616 | 11 | 158 | 16.1 | 24.1 | 0.00 | 0.00 | 4.27 | 60 | 1012.0 |
| 20260506115716 | 11 | 144 | 11.3 | 17.7 | 0.00 | 0.00 | 4.27 | 62 | 1012.0 |
| 20260506114816 | 10 | 152 | 12.9 | 19.3 | 0.00 | 0.00 | 4.27 | 61 | 1012.1 |
| 20260506113016 | 11 | 150 | 12.9 | 20.9 | 0.00 | 0.00 | 4.27 | 63 | 1012.3 |
| 20260506112116 | 11 | 159 | 9.7 | 17.7 | 0.00 | 0.00 | 4.27 | 66 | 1012.1 |
| 20260506111216 | 11 | 150 | 12.9 | 19.3 | 0.00 | 0.00 | 4.27 | 70 | 1012.5 |
| 20260506110316 | 10 | 160 | 12.9 | 19.3 | 0.00 | 0.00 | 4.27 | 70 | 1012.4 |
| 20260506105416 | 10 | 147 | 9.7 | 17.7 | 0.00 | 0.00 | 4.27 | 71 | 1012.4 |
| 20260506104516 | 10 | 153 | 9.7 | 12.9 | 0.00 | 0.00 | 4.27 | 72 | 1012.5 |
| 20260506100016 | 8 | 161 | 8.0 | 12.9 | 0.00 | 0.00 | 4.27 | 70 | 1012.8 |
| 20260506094216 | 8 | 148 | 8.0 | 12.9 | 0.00 | 0.00 | 4.27 | 69 | 1012.9 |
| 20260506093316 | 8 | 153 | 8.0 | 12.9 | 0.00 | 0.00 | 4.27 | 66 | 1013.0 |
| 20260506092416 | 8 | 164 | 8.0 | 12.9 | 0.00 | 0.00 | 4.27 | 64 | 1013.1 |
| 20260506091516 | 8 | 157 | 6.4 | 8.0 | 0.00 | 0.00 | 4.27 | 62 | 1013.1 |
| 20260506090616 | 8 | 166 | 6.4 | 9.7 | 0.00 | 0.00 | 4.27 | 61 | 1013.2 |
| 20260506084816 | 8 | 157 | 6.4 | 9.7 | 0.00 | 0.00 | 4.27 | 60 | 1013.3 |
| 20260506083916 | 8 | 157 | 6.4 | 8.0 | 0.00 | 0.00 | 4.27 | 60 | 1013.3 |
| 20260506083017 | 8 | 174 | 4.8 | 9.7 | 0.00 | 0.00 | 4.27 | 60 | 1013.2 |
| 20260506082116 | 8 | 157 | 4.8 | 9.7 | 0.00 | 0.00 | 4.27 | 60 | 1013.2 |
| 20260506080316 | 8 | 158 | 6.4 | 9.7 | 0.00 | 0.00 | 4.27 | 58 | 1013.3 |
| 20260506072717 | 8 | 166 | 8.0 | 11.3 | 0.00 | 0.00 | 4.27 | 62 | 1013.3 |
| 20260506070916 | 8 | 159 | 6.4 | 11.3 | 0.00 | 0.00 | 4.27 | 65 | 1013.2 |
| 20260506062419 | 6 | 176 | 1.6 | 3.2 | 0.00 | 0.00 | 4.27 | 73 | 1013.3 |
| 20260506061516 | 6 | 167 | 3.2 | 6.4 | 0.00 | 0.00 | 4.27 | 74 | 1013.5 |
| 20260505223629 | 7 | 326 | 11.3 | 17.7 | 0.00 | 0.00 | 0.00 | 45 | 1013.7 |
| 20260505221830 | 7 | 326 | 11.3 | 19.3 | 0.00 | 0.00 | 0.00 | 44 | 1013.9 |
| 20260505220930 | 7 | 336 | 9.7 | 17.7 | 0.00 | 0.00 | 0.00 | 43 | 1013.7 |
| 20260505220030 | 7 | 345 | 9.7 | 20.9 | 0.00 | 0.00 | 0.00 | 43 | 1013.9 |
| 20260505215130 | 7 | 333 | 9.7 | 17.7 | 0.00 | 0.00 | 0.00 | 41 | 1013.9 |
| 20260505214230 | 7 | 327 | 8.0 | 16.1 | 0.00 | 0.00 | 0.00 | 47 | 1013.8 |
| 20260505213330 | 7 | 325 | 9.7 | 20.9 | 0.00 | 0.00 | 0.00 | 41 | 1014.0 |
| 20260505212430 | 7 | 333 | 8.0 | 14.5 | 0.00 | 0.00 | 0.00 | 47 | 1014.1 |
| 20260505211530 | 7 | 334 | 11.3 | 19.3 | 0.00 | 0.00 | 0.00 | 41 | 1013.9 |
| 20260505210630 | 7 | 338 | 9.7 | 19.3 | 0.00 | 0.00 | 0.00 | 42 | 1014.1 |
| 20260505205730 | 7 | 337 | 8.0 | 17.7 | 0.00 | 0.00 | 0.00 | 42 | 1014.1 |
| 20260505204830 | 7 | 312 | 9.7 | 20.9 | 0.00 | 0.00 | 0.00 | 42 | 1014.2 |
| 20260505203930 | 7 | 348 | 6.4 | 12.9 | 0.00 | 0.00 | 0.00 | 47 | 1014.2 |
| 20260505202130 | 7 | 347 | 11.3 | 27.4 | 0.00 | 0.00 | 0.00 | 40 | 1014.0 |
| 20260505201231 | 7 | 333 | 11.3 | 19.3 | 0.00 | 0.00 | 0.00 | 40 | 1013.9 |
| 20260505200330 | 7 | 318 | 9.7 | 20.9 | 0.00 | 0.00 | 0.00 | 40 | 1014.1 |